sat.trackr.live / text

‹ back to catalog

STARLINK-32204

NORAD 60584 · 2024-150B

PAYLOAD ACTIVE UNKNOWN

§ Identity

Operator
Country
US
Launch date
2024-08-20
Launch site
AFETR
Launch vehicle
Mass (kg)
RCS (m²)

Purposes: comms

External: N2YO · Heavens-Above · Gunter

§ Orbital elements

Epoch: 2026-05-25T04:34:28.303104Z

Period
93.85 min
Inclination
53.1621°
Eccentricity
0.0001315
Mean motion
15.34395932 rev/d
Perigee alt
461.8 km
Apogee alt
463.6 km
Semi-major
6,840.9 km
B*
9.6048e-5
RAAN
311.0069°
Arg perigee
87.6780°
Mean anomaly
272.4373°
Rev number
9,976

§ Raw data

STARLINK-322041 60584U 24150B   26145.19060536  .00002870  00000+0  96048-4 0  99902 60584  53.1621 311.0069 0001315  87.6780 272.4373 15.34395932 99762

JSON: /api/v1/satellites/60584 · /tle

For live sub-satellite position, see the globe view (requires WebGL).

§ Visibility from observer

Set your observer location to see the next 7 days of passes ≥ 10°. The values pass through the URL so the page stays shareable.

No JS? Fill the form by hand. The geolocation button needs JavaScript.